ASIASAT 8

Last updated on Jan. 27, 2020, 4:38 a.m. UTC

1 40107U 14046A   20026.84753556 -.00000039  00000-0  00000-0 0  9993
2 40107   0.0174  94.1060 0001570 194.6426 138.0417  1.00272339 78759
UTC
Height (km)
Latitude
Longitude
Inclination
Orbital Period
UTC large
Height (km)
Speed (km/s)
/
Latitude / Longitude
Inclination (degrees)
Orbital Period (minutes)
Azimuth
Elevation
Range (km)
Doppler Factor
iOS Compass Heading
iOS Angle

Next 30 passes for location: Hong Kong

Rise time Rise Azimuth (degrees) Set time Set Azimuth (degrees) Duration Max altitude (degrees)

No matching passes for this satellites